This is the latest recevied weather packets stored in our database for station/object N2XP-2. If no packets are shown the sender has not sent any weather packets the latest 10 day(s).
| Time | Temp. | Humidity | Pressure | Rain* | Wind** | Luminosity | Snow |
|---|---|---|---|---|---|---|---|
| 1777644075 | 14.44° C | 64% | 1013.4 hPa | 0 mm | 0.45 m/s, 267° | - | - |
| 1777643927 | 14.44° C | 66% | 1013.5 hPa | 0 mm | 0.89 m/s, 262° | - | - |
| 1777643776 | 14.44° C | 66% | 1013.5 hPa | 0 mm | 0.89 m/s, 262° | - | - |
| 1777643639 | 13.89° C | 66% | 1013.4 hPa | 0 mm | 0.89 m/s, 18° | - | - |
| 1777643635 | 13.89° C | 67% | 1013.5 hPa | 0 mm | 0.45 m/s, 32° | - | - |
| 1777643626 | 13.89° C | 67% | 1013.5 hPa | 0 mm | 0 m/s | - | - |
| 1777643610 | 13.89° C | 66% | 1013.4 hPa | 0 mm | 0 m/s | - | - |
| 1777643477 | 13.89° C | 66% | 1013.4 hPa | 0 mm | 0 m/s | - | - |
| 1777643249 | 13.89° C | 66% | 1013.5 hPa | 0 mm | 0 m/s | - | - |
| 1777643174 | 13.89° C | 66% | 1013.5 hPa | 0 mm | 0 m/s | - | - |
| 1777642996 | 13.89° C | 66% | 1013.5 hPa | 0 mm | 0.45 m/s, 15° | - | - |
| 1777642875 | 13.89° C | 66% | 1013.5 hPa | 0 mm | 0.45 m/s, 15° | - | - |
| 1777642576 | 13.89° C | 66% | 1013.4 hPa | 0 mm | 0.89 m/s, 18° | - | - |
| 1777642273 | 13.89° C | 67% | 1013.5 hPa | 0 mm | 0.45 m/s, 32° | - | - |
| 1777641974 | 13.89° C | 67% | 1013.5 hPa | 0 mm | 0 m/s | - | - |
| 1777641675 | 13.33° C | 67% | 1013.5 hPa | 0 mm | 0.89 m/s, 350° | - | - |
| 1777641373 | 13.33° C | 67% | 1013.5 hPa | 0 mm | 0.89 m/s, 323° | - | - |
| 1777641074 | 13.33° C | 67% | 1013.5 hPa | 0 mm | 0.45 m/s, 256° | - | - |
| 1777640775 | 13.33° C | 67% | 1013.6 hPa | 0 mm | 0.89 m/s, 359° | - | - |
| 1777640546 | 13.33° C | 68% | 1013.6 hPa | 0 mm | 0.89 m/s, 340° | - | - |
| 1777640472 | 13.33° C | 68% | 1013.6 hPa | 0 mm | 0.89 m/s, 340° | - | - |
| 1777640173 | 13.33° C | 68% | 1013.5 hPa | 0 mm | 0.45 m/s, 8° | - | - |
| 1777639874 | 13.33° C | 68% | 1013.5 hPa | 0 mm | 0.89 m/s, 21° | - | - |
| 1777639800 | 13.33° C | 72% | 1013.6 hPa | 0 mm | 0.45 m/s, 356° | - | - |
| 1777639571 | 13.33° C | 69% | 1013.6 hPa | 0 mm | 0.89 m/s, 335° | - | - |
* Rain latest hour (hover to see other rain measurements)
** Current wind speed in m/s (hover to see current wind gust speed)